Theta_e
302 301 301 300 300 300 299 299 299 299 300 300 300 301 302 303 304 306 308 307 308 308 310 311 310 311 311 311 310 311 311 313 313 313 314 313 313 312 311 312 311 311 310 309 309 306 305 302 302 301 301 300 299 298 297 296 295 295 294 293 292 292 292 292 293 293 291 288 289 289 290 291 291 291 290 291 291 292 292 291 291 292 291 291 290
300 299 300 299 298 298 298 298 297 297 297 298 299 300 300 301 302 303 306 306 306 307 308 309 310 309 308 309 309 310 310 309 310 311 312 313 311 310 309 308 309 310 309 309 308 306 304 301 300 300 299 299 299 297 296 295 294 294 294 291 292 292 291 292 293 291 288 287 286 287 288 288 289 289 289 290 291 292 291 292 291 291 291 291 291
298 298 298 297 296 296 296 296 296 296 297 297 298 299 299 300 301 302 304 305 305 305 305 307 308 309 309 308 309 309 310 310 309 309 310 311 309 309 308 308 308 308 308 308 308 307 304 301 300 299 299 298 297 296 296 294 295 294 293 293 291 291 290 293 293 292 287 287 287 286 284 285 287 286 288 290 291 291 290 290 291 290 291 290 290
296 295 295 295 295 294 294 294 295 295 295 296 296 297 299 299 300 301 302 303 303 304 303 304 306 307 307 306 307 305 303 305 307 306 306 308 306 306 305 305 305 304 305 305 306 306 305 303 300 299 299 297 297 296 295 295 294 294 294 292 292 290 290 292 293 291 289 289 284 285 284 284 283 284 285 287 289 290 290 290 291 290 290 290 289
294 294 294 294 294 293 293 293 293 293 294 294 295 296 297 297 299 300 301 301 302 302 303 303 304 304 305 304 303 303 302 302 301 302 303 303 304 303 305 305 305 303 304 304 304 305 304 303 300 298 298 297 297 296 295 295 294 295 294 293 292 292 290 290 292 291 290 292 289 285 284 284 283 284 285 285 287 287 288 289 290 290 290 289 288
294 293 293 293 293 293 292 292 292 293 293 294 295 295 295 296 297 299 299 300 300 301 302 302 302 301 300 300 299 299 299 299 298 298 300 301 302 302 303 303 303 302 302 303 303 302 303 303 301 299 297 297 296 296 295 294 294 294 294 293 292 291 291 290 290 291 290 291 290 288 287 285 284 285 285 282 286 286 287 288 288 289 289 289 288
293 293 292 292 292 291 291 291 292 292 293 294 294 294 294 294 295 296 297 298 299 300 301 300 300 300 300 299 299 298 298 299 300 301 301 301 303 302 301 302 302 302 301 300 301 301 301 301 301 300 298 297 296 295 294 294 295 294 294 293 292 292 289 289 290 290 290 290 292 293 291 289 289 286 283 281 280 283 286 286 287 288 288 288 288
292 292 291 291 291 291 290 291 291 292 292 293 293 294 293 293 293 294 295 296 297 298 299 300 299 298 298 298 298 298 298 298 299 299 299 299 299 300 300 300 301 301 300 300 299 299 300 300 300 300 298 297 296 295 295 294 294 295 294 294 292 292 291 290 289 290 289 289 290 291 291 291 291 290 289 286 283 281 282 285 286 287 287 287 287
291 290 290 290 291 290 291 290 291 291 292 292 293 293 293 293 292 293 293 294 295 296 297 298 298 298 298 298 297 299 299 299 298 299 297 297 298 298 299 299 298 299 299 299 298 299 298 298 297 298 298 297 296 296 294 294 293 293 293 293 292 292 291 290 290 289 289 289 288 288 290 290 289 288 289 290 282 281 281 282 283 285 286 286 287
291 291 290 290 290 291 290 290 289 290 291 292 292 293 292 292 292 291 291 292 293 294 295 296 296 297 296 296 296 296 298 298 297 297 297 297 297 297 297 297 296 297 297 297 297 298 297 296 297 296 297 296 295 294 293 293 293 293 294 293 293 292 291 291 291 290 290 289 289 290 290 287 287 286 286 287 287 285 283 282 283 283 283 285 287
291 291 290 290 291 291 291 290 290 290 290 290 291 291 291 292 291 291 291 291 292 292 292 293 293 294 294 294 294 294 295 295 295 296 296 296 296 295 296 296 295 295 296 295 296 296 296 296 295 296 296 295 295 294 293 293 293 293 294 293 292 292 291 291 290 290 290 289 288 288 290 290 290 288 287 286 288 286 283 283 284 285 285 283 285
291 290 290 289 289 289 289 289 289 288 289 289 289 290 290 290 290 290 290 291 291 291 291 291 291 291 291 292 293 293 293 294 294 293 294 294 294 294 295 294 294 295 295 294 294 295 295 295 294 294 295 294 295 295 294 293 293 292 292 293 292 292 292 291 290 290 289 289 289 289 289 290 290 289 289 289 288 287 288 284 284 284 284 285 285
289 289 289 289 288 288 287 287 287 288 288 288 288 289 289 289 289 289 289 289 290 290 290 289 290 290 290 291 291 292 292 292 292 292 293 293 293 293 293 293 293 294 293 293 293 293 294 294 294 294 294 295 294 294 294 293 292 292 292 292 292 291 291 291 290 290 290 289 289 289 289 289 289 290 289 288 288 288 287 282 285 285 283 284 284
287 287 287 287 287 287 287 287 288 288 287 287 288 288 289 289 288 287 287 288 288 289 290 290 289 289 289 289 290 290 290 291 291 291 292 292 293 292 293 293 293 293 294 293 294 293 293 294 294 294 294 293 293 294 293 292 292 291 291 290 290 291 291 291 290 289 289 290 289 288 288 289 289 289 289 288 287 286 284 285 284 285 283 283 282
286 286 285 286 286 286 286 287 287 287 287 287 287 287 288 288 288 287 287 288 287 288 288 289 289 289 288 288 289 289 290 290 290 291 291 290 291 292 292 292 292 293 293 294 294 293 293 293 293 293 293 293 293 292 294 293 292 292 291 290 290 290 290 290 289 289 289 288 288 288 288 288 289 289 289 289 289 288 288 286 285 285 282 282 281
286 285 285 285 285 285 286 286 286 287 287 287 286 287 287 287 286 286 286 287 287 287 288 288 288 287 287 287 287 288 288 288 288 289 289 290 290 290 291 291 292 291 293 293 293 293 293 292 292 292 292 292 292 292 292 292 291 290 290 289 289 290 289 288 288 288 288 287 287 288 287 287 288 288 289 290 289 289 288 287 287 286 285 281 279
284 285 284 284 283 284 285 284 285 285 286 286 287 287 286 286 285 285 285 285 286 286 287 287 288 287 287 286 287 286 287 286 287 286 287 289 289 289 289 290 290 291 292 292 292 292 293 292 291 291 292 292 291 291 291 289 289 289 289 288 288 287 287 287 287 287 287 287 287 286 287 288 287 286 287 288 288 288 288 288 288 288 287 285 280
284 284 284 283 284 284 284 285 285 285 285 286 286 287 286 285 284 283 283 284 285 285 285 286 286 287 286 286 286 286 286 286 287 286 286 286 286 287 287 287 288 290 291 291 291 290 291 291 291 290 289 289 289 289 289 289 288 289 288 288 288 287 287 287 287 287 287 286 286 286 286 286 286 286 286 285 286 288 286 288 288 288 288 287 283
285 285 285 285 284 284 284 285 285 285 286 286 286 286 285 285 284 284 283 284 284 285 284 286 285 287 287 286 285 286 286 286 286 286 285 285 285 285 285 286 287 287 288 288 288 288 288 288 288 288 289 288 287 288 288 288 287 288 287 288 286 286 286 286 286 286 287 286 286 286 286 286 286 286 285 285 285 286 286 286 287 287 286 288 285
285 285 286 287 287 285 284 284 284 284 285 286 286 285 284 284 283 283 283 283 283 284 284 285 286 286 286 285 284 285 285 285 285 285 285 285 285 285 285 285 286 286 286 286 286 286 287 286 287 287 287 287 287 287 288 288 288 288 288 288 287 286 286 286 286 286 287 286 286 286 286 285 285 285 285 285 285 285 285 285 285 286 285 285 285
286 285 286 287 286 286 285 285 286 285 285 285 285 285 284 284 284 285 284 283 283 283 283 283 284 284 282 282 283 283 284 284 284 284 284 284 284 285 285 285 286 286 286 286 285 286 286 286 286 287 286 287 286 287 287 286 287 287 287 286 286 286 286 286 286 286 285 285 285 286 286 285 284 285 286 286 285 285 284 284 285 285 285 284 284
284 284 285 287 285 285 284 284 284 284 284 283 283 283 282 281 282 283 283 283 282 283 283 283 283 283 281 282 282 282 283 283 282 283 283 283 284 284 285 285 285 286 286 286 286 285 285 286 286 286 287 288 288 287 286 286 287 286 286 287 287 286 286 285 285 285 285 286 286 285 285 285 284 285 285 285 285 284 284 284 284 284 284 284 284
285 286 286 286 285 284 284 283 283 283 284 283 282 282 281 281 280 281 281 281 281 282 282 283 282 282 282 281 281 281 281 280 280 281 281 282 283 283 284 284 284 285 285 285 285 285 285 285 285 285 285 286 287 287 287 287 287 286 286 286 286 285 285 285 285 285 285 285 285 285 285 285 286 285 285 285 284 284 283 283 284 284 284 285 283
285 285 285 285 284 284 283 284 285 284 284 283 283 283 282 282 281 280 280 280 281 281 282 282 282 281 281 280 281 280 281 280 280 280 281 281 282 282 283 283 283 284 284 285 285 285 285 285 285 285 285 285 285 285 285 286 286 286 286 286 285 285 285 285 285 285 284 284 284 285 285 285 285 285 285 284 284 284 284 284 284 284 284 285 284
283 284 284 284 283 283 284 284 284 283 283 283 283 282 282 281 281 280 280 280 281 281 281 281 280 280 280 280 280 280 280 280 280 280 280 280 281 282 282 282 282 282 283 283 284 284 285 285 285 285 285 285 285 284 284 284 285 285 286 286 286 285 285 285 285 285 286 284 284 284 284 284 284 284 285 284 284 283 284 284 284 284 284 284 284
283 283 283 282 283 284 283 283 283 283 283 282 282 281 281 281 280 281 280 280 280 281 281 281 280 280 280 279 279 279 279 279 279 279 279 280 280 280 281 282 281 282 282 282 282 283 283 284 284 284 284 284 284 284 284 284 284 284 285 285 285 285 285 285 285 285 285 285 285 285 284 284 284 284 284 284 284 284 284 284 284 284 283 283 283
281 281 281 281 281 281 282 282 282 282 282 282 282 281 281 281 280 280 280 280 279 280 280 279 280 278 279 278 278 278 279 279 279 279 280 279 279 279 280 281 281 281 281 281 281 281 282 283 283 284 284 284 284 284 284 284 284 284 284 284 284 285 285 285 285 285 285 284 285 284 284 284 284 284 284 284 284 284 284 284 284 283 283 283 283
280 280 280 280 280 280 281 281 281 281 281 281 281 282 281 281 280 280 280 280 281 280 279 279 279 278 278 279 279 279 279 280 279 279 279 279 279 278 279 280 280 280 281 280 280 281 281 281 282 282 283 284 284 284 284 284 284 284 284 284 284 284 284 284 284 285 285 285 285 285 285 285 285 285 285 284 283 283 283 283 284 283 283 283 283
280 280 280 280 280 280 280 281 281 281 280 280 280 280 280 280 280 280 280 279 279 280 278 278 278 278 277 277 278 278 279 278 278 278 278 278 278 277 278 279 280 280 282 281 281 281 280 280 281 281 281 282 283 284 284 284 284 284 284 283 284 284 284 284 284 284 284 285 285 285 285 285 285 286 286 287 286 286 285 284 284 283 283 283 283
280 280 280 280 280 280 280 280 280 280 280 279 279 279 280 280 280 279 279 279 279 278 278 277 277 277 277 277 278 277 278 278 278 278 278 278 278 277 278 278 279 280 281 281 281 280 279 280 280 280 280 281 282 283 285 287 288 286 284 284 284 284 283 283 283 283 284 284 285 285 286 286 286 286 286 287 288 288 288 286 285 283 283 283 282
280 280 280 280 279 280 280 280 279 279 280 280 280 280 280 280 281 280 280 280 279 278 277 277 277 277 277 277 277 277 278 277 278 278 277 277 277 277 276 277 277 278 279 280 281 280 280 280 279 279 279 280 281 282 285 288 288 289 287 284 284 284 283 283 283 283 283 284 284 285 285 285 285 285 286 287 288 288 288 289 289 288 286 284 282
279 279 280 280 280 279 279 279 280 280 280 280 281 281 281 281 281 281 281 280 279 278 277 277 277 277 277 278 278 278 277 278 277 277 277 277 276 276 276 276 276 276 278 279 279 280 280 280 280 279 279 280 280 284 286 286 287 288 288 285 283 283 283 283 283 283 283 284 284 284 284 285 285 285 285 284 285 287 288 288 288 289 289 289 288
277 278 279 280 280 280 280 280 279 280 280 280 281 281 281 281 281 281 280 280 278 277 277 277 277 277 277 277 277 277 277 278 278 278 277 277 277 276 276 276 276 277 277 277 278 279 279 279 278 278 279 279 279 283 285 285 286 287 287 287 283 283 282 282 283 283 283 283 283 284 284 284 285 285 285 285 285 284 286 287 288 288 288 289 289
278 279 280 280 281 282 281 280 280 280 280 281 281 281 281 281 280 280 279 278 278 278 277 277 277 277 278 278 278 277 277 278 278 278 277 277 276 276 276 276 276 276 276 276 277 278 278 278 278 278 278 279 279 282 284 284 285 286 287 286 283 282 282 282 282 282 283 283 283 283 283 283 284 284 285 285 285 284 284 284 284 284 285 286 287
278 278 278 279 279 279 280 280 280 281 281 281 280 280 280 279 279 278 279 278 278 278 278 278 278 279 278 278 278 277 277 278 277 277 277 277 277 276 276 275 275 275 275 276 276 277 278 278 278 277 277 277 278 282 283 284 284 285 286 286 283 282 282 281 282 282 282 283 283 284 283 283 283 284 284 285 284 284 284 283 283 283 283 284 284
278 279 278 278 278 279 279 279 280 280 279 278 277 278 277 277 277 277 277 277 277 277 277 278 278 278 278 278 277 277 277 277 277 276 276 276 276 276 276 276 275 275 275 275 276 276 276 276 277 276 276 276 277 281 282 283 284 284 285 283 282 281 281 280 280 281 281 282 282 283 283 283 283 283 285 287 287 285 283 283 282 282 282 283 284
278 279 278 278 279 278 279 279 279 278 277 277 277 277 276 276 276 276 276 276 276 276 276 276 277 277 277 277 277 276 276 276 275 275 275 275 275 275 275 275 274 274 274 274 274 274 275 275 275 275 275 275 275 278 281 282 283 284 283 281 281 280 280 279 280 280 281 281 282 282 282 282 283 283 285 287 288 287 284 283 282 282 282 282 282
278 278 278 278 278 277 278 278 277 276 276 276 276 276 275 274 274 274 274 274 274 274 274 275 275 275 275 275 275 275 274 273 273 272 273 273 274 274 274 274 273 272 272 273 273 273 273 274 274 273 274 273 274 277 279 280 281 282 282 280 280 279 278 278 279 279 280 280 281 283 283 282 282 282 286 287 288 287 284 283 282 282 281 281 282
277 277 276 276 276 277 276 275 274 274 274 274 274 273 273 272 273 272 272 271 271 272 272 272 273 273 273 273 273 273 272 271 271 271 271 271 271 272 272 273 272 272 272 272 272 272 272 273 273 272 274 273 272 274 278 279 280 281 280 279 279 278 278 278 278 278 279 280 280 282 284 284 283 284 287 287 288 287 284 284 283 282 281 281 282
276 276 276 276 275 274 273 273 273 273 273 272 272 271 270 271 270 271 269 269 270 271 271 271 271 271 270 270 270 270 270 269 269 269 269 269 270 270 270 270 270 271 270 271 271 271 270 271 271 271 271 271 271 271 273 277 278 279 280 278 277 276 276 277 278 278 278 278 279 280 282 285 287 287 288 288 288 288 285 284 283 281 280 280 282
275 276 277 274 274 273 273 272 272 272 271 271 270 268 268 268 269 268 267 268 269 269 269 268 268 267 266 266 267 267 266 266 266 266 266 267 267 268 268 268 268 269 269 269 269 269 269 269 270 270 270 270 270 270 271 276 277 278 279 278 276 276 277 277 277 278 278 278 278 279 279 283 285 286 287 288 288 289 288 285 283 282 282 283 284
276 276 274 272 272 271 271 270 270 270 270 268 267 266 267 266 266 265 266 267 267 266 266 264 263 263 263 263 263 263 263 263 264 264 263 264 264 265 265 265 266 266 266 266 267 267 267 267 268 268 269 269 270 272 270 273 276 277 278 279 276 276 278 277 277 277 278 278 278 279 279 281 284 285 286 287 288 288 289 286 284 286 287 287 284
272 272 272 271 269 269 268 268 269 268 268 267 265 264 264 264 263 264 265 265 264 264 262 262 261 261 261 261 261 261 261 262 262 262 262 261 262 262 263 263 263 263 264 264 264 265 265 265 266 267 267 268 268 269 273 271 274 276 277 278 279 278 280 279 277 277 277 278 279 279 279 282 284 285 286 286 287 287 287 286 288 288 288 287 286
272 271 270 268 267 267 267 267 267 266 266 265 264 262 263 262 262 264 264 263 262 261 260 260 259 259 259 259 259 260 260 260 260 260 260 260 260 261 261 262 262 262 262 262 263 263 264 264 264 265 266 267 268 268 271 273 273 275 276 277 278 279 281 279 279 278 279 279 278 278 280 283 284 285 285 286 286 286 285 287 288 288 288 287 285
270 269 268 267 266 265 265 264 265 264 264 263 262 261 261 260 262 262 261 260 260 259 259 258 258 258 258 258 258 259 259 259 259 259 259 259 259 260 259 260 261 261 261 261 262 263 262 263 263 263 264 265 266 267 267 270 273 274 276 277 278 279 279 280 278 279 280 280 281 283 283 283 284 284 285 285 285 286 286 287 287 287 286 285 284
267 266 266 265 264 263 263 262 262 262 262 261 260 259 259 260 261 261 260 260 259 258 258 257 257 258 258 258 257 258 258 258 258 259 259 259 259 259 259 260 260 260 261 261 261 262 262 262 263 263 264 264 265 266 266 267 270 271 272 274 275 276 277 278 278 278 281 283 284 284 284 284 284 284 283 282 281 282 285 286 286 286 285 284 284
265 266 264 263 262 262 261 261 260 261 260 260 258 259 260 260 259 260 260 259 258 257 257 257 257 257 257 257 257 257 258 258 258 259 259 259 259 259 259 259 259 259 259 259 260 260 260 261 260 261 262 262 263 264 265 265 266 266 267 268 270 271 274 275 274 274 277 277 279 281 282 283 283 283 283 284 283 283 283 283 282 283 283 283 283
264 264 262 261 261 260 260 259 259 260 260 259 259 259 259 259 259 259 258 258 257 257 257 256 256 257 257 257 257 258 258 257 257 258 258 258 258 258 258 258 258 258 258 258 258 259 259 259 259 260 260 260 261 262 262 263 264 264 265 266 267 268 269 270 271 273 275 277 278 280 281 281 281 280 281 280 281 281 281 281 280 280 281 283 283
263 262 261 260 260 259 259 258 258 259 259 258 258 258 258 258 259 258 258 257 257 257 257 256 257 257 256 257 257 257 257 257 257 257 257 258 257 258 258 258 260 260 259 259 259 260 260 261 261 261 260 260 261 262 263 267 266 270 268 267 267 268 269 270 272 275 273 273 274 275 276 276 276 276 277 277 278 279 279 280 280 280 281 281 282
262 261 260 259 258 258 257 257 258 258 258 257 257 258 258 258 258 258 257 257 257 257 256 256 256 256 256 256 256 256 256 256 256 256 256 257 261 264 263 261 261 265 268 269 269 264 264 265 264 265 265 263 263 265 270 272 273 273 274 274 274 274 275 273 274 276 275 273 273 272 273 274 274 274 274 275 276 277 277 278 278 280 280 280 280
260 259 258 257 258 258 257 256 257 257 257 257 257 257 257 258 258 258 258 257 257 256 256 256 256 256 256 256 256 256 256 256 256 256 256 256 256 258 264 267 267 267 268 269 270 270 271 271 267 265 267 271 272 272 273 273 273 273 273 274 274 274 275 275 276 274 272 272 272 273 274 274 274 274 274 274 275 276 276 277 277 278 279 279 280
Wind_Speed
8 11 12 11 11 10 9 9 10 9 11 11 11 12 12 11 10 6 4 4 4 2 2 2 1 1 1 3 2 3 3 1 1 1 0 1 2 3 4 5 5 5 4 5 6 6 6 5 5 6 7 8 8 10 9 9 8 8 7 6 9 7 5 6 7 9 9 4 3 3 1 1 2 1 4 4 4 6 6 6 4 5 4 5 4
11 12 11 10 10 11 9 9 10 12 12 11 12 11 11 11 11 10 6 5 5 3 3 2 1 1 1 2 1 1 2 3 3 1 2 1 2 3 4 4 4 5 6 6 6 6 6 6 6 7 7 7 7 6 6 6 6 6 6 5 4 7 6 8 9 10 2 7 6 2 0 1 2 3 4 4 5 5 6 7 6 6 6 6 5
12 10 9 9 10 10 10 9 10 10 9 10 10 10 11 10 9 8 8 7 6 5 6 2 2 3 3 3 2 1 2 3 2 1 2 2 2 4 4 4 5 5 5 6 7 6 7 7 7 7 7 7 7 7 7 8 9 10 9 10 7 4 3 5 10 10 7 5 3 5 2 2 2 3 4 5 6 5 6 7 7 7 7 7 6
11 10 9 9 10 10 10 11 10 9 10 10 10 10 8 9 9 9 9 9 8 7 6 5 5 6 6 6 6 7 3 4 5 5 4 3 2 3 3 3 3 4 4 4 5 5 7 7 7 7 8 8 9 8 8 9 8 8 9 9 9 8 5 8 9 8 6 11 4 6 4 4 2 8 7 4 6 6 6 6 6 6 7 6 6
8 8 9 10 11 12 11 10 8 9 9 9 9 10 8 10 10 9 9 9 8 8 7 6 4 4 5 4 3 3 3 4 2 1 2 1 1 2 1 1 2 4 4 4 4 5 5 5 6 6 7 7 7 8 9 10 10 10 11 10 11 12 10 6 7 8 8 10 8 5 1 2 6 3 6 2 4 4 5 5 5 5 7 7 7
9 9 9 8 9 9 10 10 10 9 11 10 9 10 10 10 10 10 9 8 8 7 7 6 4 3 2 2 1 1 1 1 2 3 3 3 4 2 3 3 3 3 4 4 5 4 5 5 5 5 6 6 7 7 7 7 8 9 11 11 11 9 10 7 8 8 8 9 5 4 7 7 5 3 5 4 0 3 4 4 5 5 5 6 6
7 7 7 9 9 9 10 11 10 11 11 9 9 10 10 10 9 9 9 8 9 8 8 8 7 5 4 4 4 3 3 2 1 1 2 2 4 4 3 3 4 4 3 4 4 5 5 5 5 5 5 6 6 6 7 8 8 10 8 9 10 10 7 10 12 11 7 7 7 7 1 1 4 8 6 5 1 3 4 5 5 5 5 6 7
6 7 7 7 8 9 11 10 11 11 8 9 9 9 10 10 9 9 8 8 8 9 8 8 6 5 5 4 3 3 3 2 2 2 3 4 3 2 2 2 3 3 3 4 4 4 5 5 5 5 5 5 6 7 8 6 6 6 8 9 9 9 10 11 10 9 14 11 10 8 4 1 1 0 3 9 6 5 6 3 4 6 5 6 7
6 7 8 8 9 9 9 10 8 9 10 10 9 9 8 8 9 8 9 8 8 9 8 8 7 6 5 5 5 5 5 5 5 5 3 4 1 1 1 1 3 3 3 3 4 4 4 5 5 5 5 5 6 5 6 6 7 7 8 9 10 9 9 8 8 10 10 10 9 7 4 5 3 2 0 1 4 4 3 7 6 2 4 6 7
6 7 7 8 8 8 8 6 7 8 7 8 8 8 8 7 9 9 8 8 7 8 8 8 8 7 6 5 5 5 6 6 5 5 5 4 1 1 1 1 1 3 3 3 3 3 3 3 4 5 5 6 5 5 5 6 6 6 8 9 10 11 8 9 10 8 10 9 10 9 9 4 3 3 4 4 2 4 7 8 8 10 9 10 8
6 6 6 7 7 8 8 9 9 9 9 9 9 8 8 8 8 10 9 7 7 7 7 7 6 6 5 5 5 6 6 5 6 6 5 5 5 3 1 2 2 2 3 3 3 3 3 3 4 5 5 4 5 5 5 6 7 7 7 8 10 11 10 9 8 6 8 10 9 8 10 11 13 11 10 8 7 5 3 4 5 9 12 5 8
6 6 6 5 6 7 7 9 8 8 9 10 9 8 8 7 8 10 10 9 8 8 7 7 5 4 4 4 6 6 6 5 5 5 4 4 4 4 5 4 2 1 2 3 3 3 4 4 4 4 4 4 5 6 5 5 6 6 6 6 7 9 9 10 9 10 8 9 11 9 9 9 9 8 8 9 10 8 8 7 8 5 3 6 2
5 6 6 6 6 5 5 5 5 8 8 9 9 7 5 6 7 8 9 8 8 6 6 5 6 6 6 6 6 7 7 6 5 6 5 6 6 6 6 5 6 6 3 2 4 4 4 4 4 4 5 5 5 4 5 5 5 6 6 6 7 8 9 10 10 11 10 9 10 10 9 9 10 8 6 7 6 6 6 6 7 7 8 6 4
4 4 5 5 6 6 7 8 9 9 10 10 8 7 6 6 7 7 7 6 6 6 7 7 8 8 7 7 7 7 7 6 6 6 6 6 6 6 5 5 6 5 6 5 4 4 4 5 5 5 5 5 5 5 5 5 5 6 6 6 6 7 7 10 11 9 9 10 7 8 10 9 10 8 9 7 8 7 7 8 6 4 2 5 1
4 4 4 5 6 6 6 7 7 7 9 8 7 8 7 7 9 9 8 8 7 7 6 7 7 8 7 7 7 7 7 7 7 6 6 6 6 6 6 6 6 6 6 6 6 5 3 4 4 4 4 4 5 5 5 5 5 5 6 6 6 6 7 8 9 9 10 9 7 7 8 9 9 9 9 10 8 10 9 9 9 7 1 2 3
5 4 4 5 5 5 5 6 6 6 6 6 6 5 5 6 6 6 6 5 5 5 6 6 6 6 7 8 9 8 7 6 6 6 6 5 6 6 6 6 6 6 6 5 6 5 5 3 3 4 4 4 4 5 5 5 5 6 6 6 7 4 6 7 8 7 10 9 8 7 6 7 6 8 8 9 9 8 8 7 9 10 10 6 2
4 4 4 4 5 5 5 5 5 6 6 6 6 6 6 6 5 5 5 5 6 5 6 7 7 8 9 9 9 10 10 9 8 7 6 6 6 6 6 7 6 6 6 5 6 5 5 4 4 4 4 4 5 5 5 5 5 5 6 6 7 6 6 7 7 8 8 8 9 8 9 7 6 5 6 7 8 8 8 8 9 12 10 10 7
2 2 2 3 4 4 4 4 4 3 3 4 4 5 5 5 5 4 4 6 6 7 6 6 6 7 8 9 9 8 6 5 6 7 7 8 8 7 7 7 7 7 6 6 6 7 6 6 5 5 4 4 4 5 5 5 5 5 5 6 6 5 6 6 6 7 8 7 8 8 8 8 6 6 7 5 6 8 8 8 8 8 10 13 9
1 1 1 1 2 2 2 3 3 3 3 3 3 3 3 3 3 3 5 5 5 5 5 5 5 5 6 7 7 7 7 7 7 8 7 8 8 8 7 7 7 7 8 7 7 7 7 6 5 5 5 5 5 5 5 5 5 5 5 6 5 5 6 6 6 5 6 6 8 9 8 9 6 8 8 7 6 6 6 5 7 7 8 10 10
0 0 0 0 0 1 1 2 4 4 4 4 4 3 4 4 5 5 5 5 6 7 7 7 7 7 7 6 5 5 5 6 7 8 8 8 8 7 7 7 8 7 6 6 7 6 7 7 6 6 5 5 5 5 5 5 5 5 6 7 6 5 6 7 7 6 5 6 7 8 8 8 7 7 9 8 8 7 6 7 7 6 6 6 7
2 1 1 0 1 1 1 2 3 3 4 4 4 4 4 5 5 6 7 7 6 5 5 5 5 6 6 7 7 6 7 6 7 7 8 7 7 7 8 7 7 7 6 7 6 7 7 7 7 7 6 5 5 5 5 4 5 6 6 6 6 6 6 7 6 7 6 6 7 8 8 7 5 8 9 8 8 8 7 7 7 7 8 7 7
3 2 1 1 0 1 2 2 3 2 2 2 3 2 3 4 5 6 7 6 7 8 7 6 5 5 6 6 7 6 7 7 7 6 7 7 7 7 7 8 8 8 8 8 8 6 5 6 6 7 7 7 7 5 5 4 5 6 6 5 6 7 7 7 6 7 7 7 6 8 8 7 7 9 9 9 8 7 7 8 8 8 9 9 7
4 3 3 3 2 3 4 4 4 2 2 2 3 4 4 4 4 5 5 6 6 6 6 6 6 6 6 6 6 6 7 7 7 6 7 6 6 5 5 7 8 8 8 8 8 9 9 8 7 6 6 6 6 6 6 5 5 5 6 6 6 6 7 7 7 8 7 7 7 7 8 6 6 9 9 8 7 8 7 9 10 8 10 10 7
3 2 3 3 3 4 3 3 1 2 2 3 3 4 4 4 4 4 5 5 5 4 5 5 5 6 5 5 5 5 7 7 7 7 8 7 7 5 5 5 6 6 8 8 8 8 8 9 9 9 9 7 7 6 6 5 6 6 6 7 7 7 7 7 8 7 7 7 8 7 7 7 8 10 10 7 7 7 8 8 9 8 9 11 8
2 3 2 2 2 3 2 1 2 2 3 4 4 3 4 4 4 4 4 4 5 5 5 5 5 5 6 5 5 5 5 5 5 6 6 7 7 7 7 6 7 7 6 6 7 6 7 7 7 7 8 8 8 7 6 6 6 5 6 7 7 7 7 7 8 8 7 7 7 8 7 6 8 10 10 8 8 9 9 9 10 9 9 8 6
1 1 1 2 2 1 1 1 1 1 1 2 3 3 3 4 4 4 3 4 5 5 5 6 6 6 6 6 5 5 5 5 4 4 4 5 6 5 6 6 5 6 8 8 7 7 6 7 7 7 7 7 7 7 7 6 6 6 6 6 6 6 7 7 7 7 7 7 8 8 7 7 8 10 10 8 9 11 10 10 11 10 8 7 8
1 1 1 1 1 1 0 0 0 0 0 1 1 2 2 2 3 3 2 2 4 4 5 5 5 5 5 5 5 4 4 4 4 4 4 4 4 4 5 6 5 5 5 7 7 8 8 7 8 8 8 8 7 7 7 7 7 6 6 6 7 7 7 7 6 6 6 6 7 7 7 8 10 10 10 9 8 9 9 11 11 10 9 8 10
2 1 2 3 2 1 1 0 0 0 1 1 1 1 2 2 2 3 3 1 3 1 3 4 4 4 4 5 4 5 5 5 4 4 4 5 4 4 5 5 5 5 5 6 6 6 8 7 8 8 8 8 7 7 7 7 7 7 7 7 7 7 7 7 7 7 7 7 7 7 7 8 9 10 10 9 8 9 8 9 9 8 8 10 11
3 4 4 4 4 4 3 2 2 1 1 2 2 2 2 2 2 2 2 2 2 1 3 4 4 4 4 4 4 4 5 4 4 4 5 5 4 4 5 6 6 6 6 6 6 6 6 7 7 8 8 7 8 8 6 7 7 8 7 7 8 8 8 8 8 8 7 7 7 7 7 8 9 12 15 13 12 11 9 10 9 6 8 10 9
4 5 5 5 5 4 4 3 2 2 3 4 4 4 4 4 5 4 3 4 3 3 3 4 3 4 4 4 4 4 4 4 4 5 5 5 5 5 5 6 7 7 7 7 7 6 5 6 8 8 7 7 8 7 9 14 13 9 8 8 8 8 8 8 9 9 9 8 8 8 8 12 14 15 15 16 17 18 19 14 9 7 9 9 10
4 5 5 5 5 5 4 4 5 5 5 5 5 6 5 5 6 5 6 5 3 4 3 4 5 4 4 4 4 5 5 5 6 5 6 5 6 5 5 6 6 6 8 8 8 8 8 7 7 7 8 8 8 7 13 15 17 19 11 8 8 9 8 9 9 9 10 9 8 9 8 10 12 13 13 16 18 19 18 19 19 17 14 11 10
4 5 5 5 5 5 5 5 6 6 6 6 6 7 6 7 7 6 6 4 3 3 4 4 5 5 5 6 6 7 7 8 7 7 7 6 5 6 7 7 7 8 7 6 8 9 9 8 8 9 9 9 9 9 16 18 19 20 16 10 8 8 8 8 9 10 9 9 9 9 8 8 9 10 9 9 13 17 18 19 19 20 21 21 19
5 5 5 6 5 5 6 6 5 6 6 7 7 6 7 7 6 6 4 3 3 3 4 4 4 4 5 5 6 7 7 9 9 9 8 7 8 8 9 9 10 9 7 9 11 10 9 9 8 10 11 10 10 11 16 18 20 21 21 16 9 9 9 9 9 10 10 10 9 9 9 9 8 13 12 11 10 11 14 18 19 20 21 22 22
3 4 4 5 5 6 6 6 6 6 6 7 6 5 6 4 4 4 3 4 4 5 4 5 5 6 6 7 8 7 8 9 9 9 9 9 9 10 9 8 8 8 9 11 12 12 12 12 10 10 10 10 12 12 18 20 21 22 21 18 10 11 10 10 10 10 10 10 10 10 10 10 9 9 9 11 11 10 10 9 10 12 12 16 20
2 3 4 4 5 5 6 8 8 6 6 8 9 9 8 9 9 9 7 7 6 6 7 7 9 9 9 8 9 9 10 10 10 9 9 10 11 10 10 8 7 8 10 11 11 13 12 12 12 12 11 12 12 17 21 22 22 23 23 19 11 10 10 10 11 10 10 11 11 11 11 11 11 10 10 11 10 9 9 10 10 11 12 12 12
2 1 3 3 4 5 6 6 5 6 5 6 5 6 7 7 7 7 7 8 7 8 9 8 9 9 9 9 8 9 10 10 10 9 10 11 10 10 11 10 9 9 9 9 11 11 13 14 14 13 12 14 14 21 22 21 22 23 25 14 11 11 11 11 11 11 11 10 10 11 11 12 12 11 12 18 16 11 9 11 13 12 12 11 12
2 1 2 5 5 6 6 5 6 5 5 6 6 7 8 8 9 8 8 8 8 8 9 9 9 10 9 9 9 10 11 11 9 9 10 11 12 13 12 9 10 10 11 12 13 12 12 13 14 14 13 14 15 19 24 24 23 24 19 12 11 11 11 11 12 12 12 11 11 11 11 11 12 12 13 17 19 18 12 13 13 13 12 12 13
2 5 5 5 5 5 6 6 5 5 5 7 7 8 8 6 7 7 7 8 7 8 9 10 10 9 10 11 11 10 10 10 10 11 13 13 13 12 12 10 11 12 13 13 13 14 14 14 14 15 14 13 15 19 26 26 27 27 22 15 12 12 12 12 13 13 11 11 12 18 16 13 13 13 15 18 19 16 13 14 14 14 14 14 14
5 4 4 4 5 5 4 4 4 4 7 7 7 6 6 6 6 6 6 7 8 9 8 9 10 11 12 11 11 11 12 13 13 14 13 15 15 14 13 12 12 12 14 14 14 14 15 14 13 14 15 16 16 19 27 29 29 27 21 13 12 11 13 13 13 14 12 11 11 14 20 18 15 15 19 19 21 17 13 13 14 13 14 16 16
4 4 4 4 4 4 4 4 5 5 6 6 5 4 5 6 6 6 6 7 8 8 9 10 10 11 11 12 12 13 13 13 14 14 14 14 14 14 14 14 14 13 14 14 14 14 16 16 15 15 15 16 17 18 20 30 29 29 29 18 12 13 15 16 15 14 13 11 11 11 13 19 23 23 23 23 22 22 15 13 12 12 13 17 14
4 4 4 4 4 4 4 5 4 6 6 5 5 5 6 6 7 6 6 8 9 10 10 10 11 11 12 13 12 11 14 14 13 14 15 15 13 14 14 14 15 14 14 15 16 16 16 17 16 16 16 17 16 18 21 29 30 31 32 27 15 15 15 15 15 15 13 13 12 12 11 14 21 22 23 23 23 25 23 15 14 13 15 17 14
4 6 6 5 4 4 4 4 4 7 5 5 5 6 6 7 7 7 7 8 9 9 10 10 11 12 12 12 12 12 13 13 14 13 14 15 14 14 14 16 14 15 17 18 18 16 16 17 17 17 17 18 18 23 20 27 33 34 33 34 20 17 17 16 16 15 14 14 14 13 12 13 19 21 22 22 24 24 26 17 14 18 21 21 15
4 5 6 6 5 6 5 5 5 4 5 5 6 7 7 7 8 9 8 8 9 9 10 10 11 12 12 12 12 13 13 11 12 12 13 15 13 13 14 15 15 16 17 19 18 17 17 17 17 16 16 16 17 17 26 24 31 34 34 34 35 27 29 21 17 17 17 16 14 14 14 18 20 21 22 23 23 25 22 16 21 23 23 23 18
5 5 5 5 5 4 5 5 5 4 5 5 6 8 7 8 9 8 9 9 9 9 10 11 11 12 12 12 12 12 11 11 12 13 13 14 14 13 13 12 13 13 14 15 15 14 14 16 17 17 15 14 14 15 20 28 26 33 34 37 37 37 34 21 17 16 16 16 15 16 15 18 21 22 23 24 24 22 15 18 24 25 23 20 12
4 4 4 4 5 6 7 6 5 5 4 4 4 6 9 10 9 7 9 10 11 11 11 12 13 13 12 12 12 11 11 11 11 11 12 12 13 12 12 11 11 12 12 13 15 13 14 14 14 15 15 14 14 14 15 21 31 31 34 34 35 36 35 35 23 17 16 17 17 23 23 23 22 23 25 24 21 22 26 25 25 24 21 12 11
4 4 4 4 5 5 6 8 6 4 6 4 4 4 9 10 8 8 9 9 11 12 13 13 13 12 13 13 15 14 12 11 12 10 10 10 11 12 11 11 11 12 12 13 13 13 12 13 12 13 12 12 13 12 13 13 15 21 23 30 35 34 34 34 33 25 29 31 28 26 28 27 25 22 17 14 13 12 18 23 23 21 12 11 11
3 3 5 5 5 8 8 7 9 6 5 5 4 5 6 8 9 9 9 10 10 12 13 12 13 13 13 12 13 12 12 11 10 10 10 10 10 10 11 12 11 11 12 12 14 13 14 13 15 14 14 14 16 13 12 12 13 14 14 16 19 19 25 27 20 17 19 20 22 24 19 22 21 22 21 16 15 14 13 14 12 12 12 12 12
3 3 4 4 5 7 8 8 9 8 6 6 6 6 7 8 8 9 10 10 11 11 12 13 14 12 11 11 12 14 15 12 11 10 11 11 10 10 11 12 11 12 12 12 11 12 13 13 15 13 15 15 16 13 13 13 15 14 15 16 15 16 14 13 14 14 13 14 15 15 19 16 15 14 13 12 12 11 12 12 11 10 11 12 14
3 2 4 5 5 5 6 8 9 8 7 7 7 8 7 9 9 9 9 10 12 12 12 13 13 11 11 11 11 12 12 12 12 12 10 10 12 12 12 13 13 12 12 13 13 14 14 14 14 14 14 14 12 13 11 14 19 23 21 17 14 14 13 13 18 25 21 18 15 13 11 12 12 12 11 11 11 12 12 13 13 12 11 11 11
2 3 4 4 4 5 7 9 8 7 7 8 8 9 8 8 9 8 9 11 12 12 12 12 11 11 12 12 11 11 11 12 12 12 12 12 14 22 19 16 14 20 30 31 27 19 18 16 16 14 13 16 15 15 26 34 34 33 34 35 33 33 31 25 27 33 24 17 15 15 14 13 13 11 12 12 12 12 12 12 12 14 13 11 11
4 5 4 4 4 6 7 8 8 7 8 8 10 10 10 9 9 9 9 11 11 12 11 12 12 11 12 13 12 12 11 11 12 12 12 13 12 12 21 28 27 28 29 31 31 33 34 32 25 20 20 32 35 36 35 33 33 32 33 33 33 33 34 33 32 23 18 16 16 15 15 14 14 13 13 13 12 12 12 11 11 11 11 12 13
Wind_Direction
60 58 50 39 29 22 16 16 15 17 19 14 15 16 13 12 17 26 65 35 49 40 43 85 100 91 85 136 162 166 182 183 179 239 181 175 136 130 137 148 159 171 175 167 182 175 181 176 168 176 173 173 177 186 183 185 184 180 172 176 169 165 172 158 154 133 126 87 77 111 118 153 159 179 210 200 172 168 159 160 182 150 155 148 169
51 42 37 35 26 21 19 19 17 21 15 16 19 16 15 16 17 6 17 45 33 58 74 52 50 146 138 177 149 155 160 165 208 211 212 75 76 92 115 127 147 169 179 178 181 180 183 183 177 179 178 186 189 178 180 182 172 174 160 169 200 171 176 167 163 124 167 165 149 169 321 261 206 205 227 216 198 179 174 179 183 170 167 168 177
51 42 36 35 26 22 22 20 23 21 13 20 18 21 20 16 11 6 11 28 22 33 49 52 30 26 59 28 80 89 70 88 99 87 124 153 118 120 130 144 154 173 182 184 186 189 186 183 188 179 184 179 177 187 185 185 184 180 175 174 181 196 161 180 171 180 160 138 111 94 214 170 292 277 254 224 200 196 184 185 179 173 173 172 168
49 38 27 25 29 23 23 23 19 14 17 19 16 20 22 17 11 11 19 21 19 13 36 33 54 52 55 58 47 74 63 27 39 32 35 49 54 73 81 125 140 172 184 191 196 199 197 197 190 184 189 183 183 187 189 194 187 186 184 186 170 171 181 196 197 187 144 139 172 199 191 142 261 245 210 232 199 197 190 195 179 179 171 172 163
47 39 29 22 27 25 21 18 14 23 21 20 17 19 20 18 12 17 26 17 9 13 15 11 45 49 56 34 41 42 31 56 65 9 71 72 62 96 161 130 156 169 184 199 198 208 213 209 201 195 190 192 187 191 193 198 195 194 189 182 184 184 191 182 206 202 198 193 148 121 99 227 217 212 146 264 192 203 215 196 197 176 177 179 179
45 37 31 29 28 27 23 18 21 20 24 18 15 18 21 18 16 20 22 12 3 3 8 7 35 65 79 101 86 111 162 153 186 196 180 155 193 190 179 175 180 188 186 197 209 213 220 220 217 200 199 197 198 202 201 195 199 197 197 191 195 203 186 170 192 224 212 217 223 210 149 174 177 186 123 236 155 228 212 218 202 199 181 186 195
48 41 33 31 29 32 28 23 15 21 19 12 14 17 20 20 20 24 20 9 1 359 9 13 14 22 44 56 72 67 51 350 25 92 134 178 165 172 185 177 185 186 211 196 207 216 222 228 227 220 206 201 200 202 206 206 205 205 196 199 199 196 170 186 193 198 217 252 237 239 168 153 159 132 202 96 224 285 231 213 230 213 193 192 203
54 46 33 29 27 32 34 20 18 18 11 14 17 12 19 19 18 24 24 14 2 359 5 13 18 6 16 29 49 52 59 33 14 33 76 69 68 107 123 169 189 192 211 221 209 209 217 228 229 230 225 211 200 208 211 212 210 213 205 206 202 200 197 195 194 190 191 212 216 229 233 167 228 171 156 169 159 164 235 254 242 212 206 211 204
62 48 39 24 21 24 30 31 14 13 18 20 16 11 10 18 20 20 25 20 7 2 6 10 11 3 17 27 29 20 27 17 9 17 59 92 77 62 103 178 176 209 222 233 235 220 212 220 228 233 232 230 211 214 216 214 211 202 205 207 209 211 209 203 188 199 200 206 194 225 195 205 223 237 174 131 135 134 224 193 216 220 224 232 219
46 54 45 34 19 18 22 27 21 17 17 21 22 17 14 17 25 24 23 20 9 6 8 15 13 12 18 20 33 18 15 8 18 16 15 29 72 145 166 211 216 202 227 242 252 247 228 222 228 232 233 233 228 221 221 223 223 216 208 208 209 214 213 210 208 198 203 206 205 194 195 165 204 264 244 206 216 173 170 196 194 178 200 230 204
51 47 43 42 28 22 17 22 17 16 15 21 20 16 11 18 22 28 22 17 14 14 15 18 19 12 14 18 30 29 14 20 21 11 11 12 5 350 343 235 210 200 191 219 234 245 244 229 225 236 237 234 231 234 229 224 228 225 218 213 211 212 214 217 222 209 195 204 206 199 205 194 195 194 200 200 187 183 121 188 186 197 202 210 224
41 36 30 26 26 24 18 18 14 13 18 20 16 7 7 14 22 29 22 18 15 13 19 20 16 12 14 21 31 28 27 24 19 11 2 5 358 352 341 3 327 258 176 188 219 233 227 239 239 240 244 242 239 232 234 230 229 233 226 217 220 218 218 219 221 222 206 202 208 205 210 211 219 214 204 197 189 201 187 180 183 180 257 231 221
41 36 27 20 27 19 15 12 10 17 19 16 13 360 352 13 26 33 25 15 15 12 23 22 28 25 19 20 28 25 24 22 10 19 7 11 6 4 4 358 351 356 318 223 237 214 209 222 239 240 245 244 243 241 242 238 233 233 232 226 220 218 219 220 222 223 214 206 207 211 208 209 216 213 199 202 209 193 187 166 209 176 186 194 218
57 42 31 26 16 9 13 11 11 10 11 11 7 357 349 9 24 35 26 17 14 17 17 25 26 23 19 20 25 28 25 15 11 17 7 7 6 3 359 354 352 340 342 335 278 232 205 211 214 226 228 234 237 238 239 238 230 230 234 234 227 226 222 227 231 231 230 226 208 210 213 210 214 204 208 194 195 182 203 195 179 216 171 183 146
54 49 38 31 22 18 15 15 12 9 5 6 359 349 342 4 14 20 16 11 15 15 14 24 26 24 22 21 26 30 29 16 9 10 1 2 357 358 350 348 347 335 341 327 340 329 256 224 223 231 245 245 243 244 242 239 234 233 233 237 236 225 229 227 233 233 238 238 234 221 217 217 213 205 205 213 192 199 195 189 174 173 178 114 188
33 33 29 31 28 20 17 16 14 5 7 356 348 336 341 352 12 14 12 358 4 15 21 20 24 26 28 26 25 28 28 23 10 3 356 3 359 358 348 348 341 335 330 337 329 339 323 279 260 249 256 259 255 249 247 241 238 233 237 234 239 226 227 230 233 233 241 242 245 248 241 239 222 213 212 213 210 203 198 189 185 183 179 214 211
30 31 29 12 30 19 21 22 7 6 0 352 339 336 345 351 3 6 2 5 8 6 18 20 16 26 24 24 23 23 21 19 7 358 357 360 3 356 354 342 339 337 331 331 327 328 329 325 304 286 274 263 265 260 253 245 238 234 235 239 242 238 228 226 225 227 236 237 244 243 243 246 241 237 231 221 214 209 205 198 190 191 190 201 186
53 47 32 41 37 30 13 11 7 347 330 322 324 334 343 348 351 1 2 16 5 9 8 15 19 25 26 26 25 25 21 9 7 8 6 13 7 5 357 354 344 333 334 328 329 329 327 324 321 308 294 289 274 269 265 258 249 240 231 232 235 239 245 247 234 226 230 225 237 242 242 248 246 244 241 233 224 218 212 206 203 204 188 207 191
85 54 31 33 50 35 358 326 312 292 288 292 311 320 330 328 338 12 22 16 11 7 4 4 19 21 21 21 19 17 17 15 12 14 15 17 10 0 358 350 343 338 338 334 332 330 326 318 317 306 298 287 282 274 268 266 256 252 250 245 243 229 233 241 244 234 237 225 233 237 237 242 233 243 247 246 246 236 229 218 220 199 204 212 190
197 193 119 291 126 68 323 324 317 319 323 328 330 331 347 351 4 11 12 16 11 13 7 10 4 12 9 12 11 12 7 13 8 16 14 14 7 2 356 357 346 338 339 341 336 332 324 322 319 314 303 291 276 268 266 262 263 253 248 247 246 237 238 238 242 234 233 232 240 243 241 239 233 233 242 237 240 242 233 234 231 224 218 206 186
240 230 234 243 333 322 316 306 309 320 329 336 328 342 344 356 4 5 14 5 11 1 10 2 7 7 18 13 8 5 5 4 6 7 11 2 1 359 355 350 343 348 347 343 339 332 329 326 323 319 313 303 290 280 270 260 257 259 256 245 246 239 239 244 236 244 235 232 238 242 245 242 233 235 240 238 236 234 234 236 234 231 234 218 190
207 228 190 248 208 260 264 272 270 268 280 290 299 343 357 8 12 8 10 9 6 357 3 357 2 7 13 11 6 6 5 1 8 359 7 354 353 352 347 347 349 338 345 341 340 337 333 326 321 315 317 313 309 297 281 269 258 258 257 252 252 245 245 244 236 243 237 235 232 241 244 242 231 236 239 238 235 235 228 231 233 223 232 230 208
195 204 202 199 220 230 241 240 242 242 261 302 333 358 355 360 7 4 13 352 4 349 353 355 358 2 1 6 7 5 7 2 10 354 360 347 345 341 345 349 338 336 335 336 334 336 335 337 331 319 308 304 298 298 294 282 268 254 253 253 247 245 244 244 242 241 239 236 239 236 239 232 235 242 240 237 232 233 227 228 232 221 230 231 219
208 210 223 212 215 231 234 249 274 316 350 345 359 352 355 353 359 4 2 340 349 336 343 344 346 345 348 7 359 358 7 356 2 350 351 342 342 338 339 345 331 333 334 327 331 328 330 331 332 328 326 319 312 305 302 295 282 271 263 257 253 247 243 243 242 242 239 236 236 242 240 229 229 239 242 235 232 229 231 232 236 229 230 233 221
209 229 222 254 269 268 277 320 347 345 3 354 354 349 349 348 345 348 347 334 342 335 347 342 346 351 342 0 354 359 5 352 350 344 337 337 336 339 338 339 337 333 328 322 323 327 319 315 313 311 312 313 308 302 299 294 287 281 275 269 262 254 248 244 241 241 239 237 239 239 240 228 232 242 242 232 229 230 232 233 235 232 232 233 227
248 234 224 236 246 260 283 332 347 348 353 338 323 332 332 335 334 326 0 339 337 342 345 344 344 352 344 348 347 356 342 337 334 332 324 323 330 334 330 325 326 324 326 325 321 322 315 309 304 295 288 287 289 292 288 281 275 272 273 270 269 267 264 258 251 244 240 237 242 242 239 234 238 241 245 235 227 228 229 231 235 233 228 224 227
231 248 252 275 297 267 239 230 182 219 264 268 277 302 305 306 313 310 312 322 306 334 334 332 325 335 332 327 334 331 319 315 312 319 321 326 326 328 326 316 310 311 309 307 312 315 312 309 304 302 295 288 286 282 282 284 287 285 276 271 268 269 267 268 263 258 250 244 241 242 239 237 242 244 246 239 233 234 229 232 230 229 224 222 225
288 310 297 285 273 289 285 256 345 290 319 316 307 274 267 258 256 268 264 262 284 309 313 306 308 320 318 315 324 319 317 305 310 326 322 314 318 323 320 310 310 309 302 295 292 296 298 304 301 301 296 296 294 292 287 283 281 282 285 286 281 274 274 270 268 262 259 255 251 247 244 242 242 245 244 243 232 240 236 240 233 223 217 220 226
265 255 255 263 267 259 262 269 261 273 283 275 274 282 287 287 271 261 242 232 238 233 276 280 287 289 282 286 302 308 300 302 309 311 301 296 297 303 309 308 306 301 295 288 286 288 292 292 294 294 297 298 297 289 285 284 284 282 278 278 280 281 279 280 277 272 263 259 257 252 250 247 245 246 245 243 238 234 237 244 237 216 220 221 224
250 252 253 250 247 248 247 249 265 273 285 290 287 281 273 272 275 265 247 241 194 223 234 258 254 253 256 259 271 277 276 280 295 290 283 285 290 296 299 303 302 298 296 293 289 284 283 289 292 290 289 291 286 284 284 282 278 274 273 272 273 273 273 274 275 276 273 265 259 258 252 249 250 250 248 247 248 246 243 240 237 215 221 224 222
275 266 258 249 245 243 245 247 248 247 247 246 243 244 243 247 251 251 249 246 215 248 269 276 285 284 287 298 303 295 293 294 282 284 287 289 290 292 293 289 289 291 292 291 288 290 291 285 283 287 290 286 280 278 279 283 286 284 281 273 269 271 268 267 267 266 269 266 262 258 259 257 254 254 252 249 248 247 248 248 246 237 226 219 220
304 308 306 295 270 257 248 244 245 244 241 242 246 247 244 243 247 249 248 252 243 263 286 291 293 306 314 319 314 311 308 300 299 295 292 285 285 288 288 286 289 292 287 283 282 279 278 279 282 285 283 278 275 270 280 288 286 282 278 273 268 268 268 264 262 262 261 263 262 259 254 251 249 249 248 244 243 245 247 248 247 244 241 235 226
326 317 314 310 303 273 252 248 248 246 247 246 241 245 246 246 252 259 278 284 272 280 286 292 293 302 303 301 299 297 294 295 296 295 291 289 286 285 285 288 287 288 296 294 288 284 276 272 270 274 277 275 274 269 276 282 284 283 281 278 271 266 264 264 262 261 260 259 259 258 260 252 248 246 247 247 248 247 243 242 243 244 243 241 240
317 342 351 338 342 335 313 280 266 268 271 271 269 264 266 290 298 313 334 329 338 325 322 312 312 306 298 294 291 286 283 282 283 284 284 283 281 277 277 277 282 290 288 288 288 286 285 281 274 270 270 272 271 269 274 275 276 276 277 278 269 266 262 260 262 259 260 260 255 256 256 257 253 248 241 242 243 242 242 239 240 240 241 243 242
323 334 317 316 324 339 13 14 8 359 4 17 18 16 14 21 16 9 1 359 343 331 320 312 304 296 293 291 288 285 283 282 280 279 280 279 277 279 277 276 277 277 280 282 285 285 280 279 280 278 277 275 272 267 270 271 269 269 270 274 267 262 260 259 259 258 255 254 256 254 253 255 254 248 244 242 241 240 237 235 235 236 236 237 237
263 273 283 329 10 37 24 3 355 17 24 40 22 8 15 355 353 353 339 333 327 320 310 307 299 295 293 291 290 290 288 286 284 284 284 284 285 282 283 285 285 281 276 278 277 275 278 277 276 275 274 273 273 275 275 272 272 272 271 266 261 258 259 257 256 257 255 252 253 250 253 254 252 248 243 243 243 242 238 237 235 235 237 236 237
245 259 26 51 59 42 22 19 19 30 33 17 6 6 359 348 347 339 338 328 324 316 311 307 303 303 302 303 304 301 297 295 299 302 300 300 298 294 290 289 287 285 285 283 281 279 279 277 275 273 270 272 275 275 275 274 273 273 271 263 258 257 256 257 257 255 253 251 249 247 246 250 252 250 242 236 237 237 239 240 240 240 238 235 239
43 52 56 45 43 39 25 33 18 1 29 19 12 2 350 339 332 327 324 321 323 314 312 308 305 312 314 316 312 310 312 316 317 310 307 304 300 295 290 292 286 287 284 282 283 283 278 274 272 271 269 273 275 277 279 279 277 275 271 265 258 256 254 256 259 255 251 248 244 243 242 242 245 247 243 238 236 233 235 237 240 241 242 241 243
97 88 65 54 50 50 32 14 3 19 20 16 11 1 344 326 319 322 322 315 308 303 307 312 314 316 315 314 315 316 312 308 305 302 302 299 296 294 292 291 285 282 279 281 278 276 275 271 268 268 271 271 272 276 278 279 279 277 275 269 266 262 263 259 258 259 254 247 246 244 242 240 238 242 240 236 234 232 233 234 237 237 240 242 242
89 79 81 76 64 47 25 31 31 28 8 5 6 358 336 318 315 316 312 306 307 314 315 312 311 314 316 315 312 309 306 306 305 305 303 297 295 295 292 291 287 283 282 279 278 276 275 275 274 273 272 270 273 273 273 275 276 276 276 274 270 267 262 262 259 258 258 252 242 244 241 239 241 241 241 236 233 230 229 232 233 234 236 243 241
81 61 63 55 45 44 28 30 20 14 1 3 5 347 325 318 315 316 309 312 317 318 317 321 324 320 316 312 310 311 314 313 311 307 304 299 297 298 299 295 292 288 283 280 278 277 275 274 273 272 271 271 269 272 275 276 276 275 274 271 265 259 257 256 259 258 254 255 252 244 244 236 239 242 245 244 236 232 231 231 229 230 230 237 239
81 70 55 47 28 30 19 9 18 2 5 4 349 336 321 321 320 312 310 319 322 324 329 326 319 313 309 308 310 313 311 306 304 304 302 298 298 297 293 292 289 288 287 283 281 279 277 275 274 271 269 270 269 268 272 275 275 274 273 270 265 259 255 258 259 256 255 252 248 250 249 239 236 238 242 242 242 239 234 232 228 229 232 234 233
39 41 45 37 12 8 1 355 355 352 13 351 347 332 326 322 317 313 324 327 325 324 318 313 309 306 306 305 305 303 301 302 301 301 298 294 294 292 289 289 288 287 284 282 281 280 279 278 276 273 271 269 270 270 270 271 273 273 273 273 270 268 262 258 253 252 250 251 249 249 247 245 240 238 239 242 243 241 239 235 234 233 232 230 228
65 68 47 31 9 357 342 342 339 358 359 354 346 329 321 317 309 322 326 321 317 313 311 308 307 304 303 301 299 298 297 296 296 296 291 289 292 294 293 293 294 291 290 288 285 284 281 278 278 280 277 275 274 274 273 275 277 278 278 276 275 272 268 259 254 249 250 248 248 248 243 239 241 240 242 244 246 243 233 232 237 237 236 232 226
50 43 38 31 6 343 330 324 336 349 350 345 347 325 316 309 310 328 320 318 313 313 312 309 308 306 303 303 300 299 298 294 291 289 290 292 291 293 292 292 291 289 287 286 287 287 284 283 282 281 284 284 282 281 279 280 281 282 283 284 283 281 278 275 270 262 250 247 244 245 242 241 239 239 240 242 245 246 243 239 237 236 234 231 227
44 28 30 10 354 333 325 318 326 346 334 336 330 326 307 303 315 318 315 314 313 314 311 309 307 305 305 306 304 302 296 291 290 287 284 285 288 292 291 292 292 289 289 289 290 290 287 287 285 286 286 288 290 287 287 288 291 290 290 289 287 284 279 274 269 265 262 258 250 245 244 243 241 239 239 240 242 237 239 241 240 237 230 226 224
38 23 16 0 343 328 322 323 318 329 326 321 315 301 293 303 312 310 312 312 310 308 304 305 306 307 306 304 301 302 302 301 297 295 289 287 288 287 287 289 286 286 284 285 287 288 289 288 286 287 287 288 288 291 293 298 301 301 299 296 295 293 288 286 284 280 279 276 269 263 253 250 249 243 238 231 234 236 236 237 233 230 229 225 223
56 19 24 346 330 316 317 320 317 319 321 314 308 302 303 306 306 310 311 310 306 306 305 306 306 306 303 304 301 302 304 302 300 296 295 292 286 284 284 283 284 282 283 280 274 274 276 275 276 275 277 276 275 273 272 274 273 271 272 273 277 282 287 294 291 286 278 264 256 253 253 253 251 246 243 238 237 232 229 227 226 222 223 223 224
7 4 2 326 315 316 313 315 308 313 311 309 305 305 309 311 309 309 308 306 305 305 305 303 303 304 302 305 303 302 298 298 296 293 285 285 290 288 281 276 267 260 263 267 268 268 263 263 260 267 271 270 265 267 261 266 271 272 274 274 269 271 273 271 272 277 279 280 281 271 256 250 242 240 238 235 233 231 228 224 222 220 220 219 218
1 341 320 310 321 322 316 309 304 308 308 307 308 307 308 306 306 304 305 306 308 308 305 302 304 304 303 302 298 296 296 296 295 295 295 285 273 283 287 287 288 285 286 286 286 286 285 284 282 274 269 276 279 277 284 286 287 287 286 284 282 278 273 270 271 274 274 274 267 259 252 246 243 238 235 232 229 226 226 222 222 222 221 216 215
328 321 314 323 321 317 307 303 303 310 308 309 307 306 306 305 304 305 307 306 307 305 304 303 305 301 300 300 299 298 296 294 292 292 291 292 292 280 283 288 288 290 291 290 290 290 291 291 291 293 290 289 290 292 294 295 293 292 290 288 287 286 286 284 281 275 269 267 271 262 252 241 239 237 234 233 228 228 224 222 220 217 218 217 217